AirNav   Pilot Hours Calculator
 
 1254 users online  

I61 Hagerstown Airport
Hagerstown, Indiana, USA

GOING TO HAGERSTOWN?


FAA INFORMATION EFFECTIVE 02 DECEMBER 2021

Location

FAA Identifier: I61
Lat/Long: 39-53-21.0000N 085-09-48.0000W
39-53.350000N 085-09.800000W
39.8891667,-85.1633333
(estimated)
Elevation: 1000 ft. / 305 m (estimated)
Variation: 03W (1985)
From city: 1 mile S of HAGERSTOWN, IN
Time zone: UTC -5 (UTC -4 during Daylight Saving Time)
Zip code: 47346

Airport Operations

Airport use: Open to the public
Activation date: 05/1957
Control tower: no
ARTCC: INDIANAPOLIS CENTER
FSS: TERRE HAUTE FLIGHT SERVICE STATION
NOTAMs facility: HUF (NOTAM-D service available)
Attendance: UNATNDD
Wind indicator: lighted
Segmented circle: no
Lights: ACTVT LIRL RWY 02/20 - CTAF.

Airport Communications

CTAF/UNICOM: 123.0
WX AWOS-3 at CEV (12 nm S): 118.325 (765-827-6649)
WX AWOS-3 at RID (17 nm SE): 121.225 (765-983-1903)

Nearby radio navigation aids

VOR radial/distance  VOR name  Freq  Var
MIEr156/23.4MUNCIE VOR/DME114.4003W
SHBr062/34.2SHELBYVILLE VOR/DME112.0001E
DQNr259/36.1DAYTON VOR/DME114.5001W

 
NDB name  Hdg/Dist  Freq  Var  ID
PNTHR351/6.922704WSQ ... --.-
NEW CASTLE092/7.238506WUWL ..- .-- .-..
BATESVILLE013/32.925405WHLB .... .-.. -...

Airport Services

Parking: tiedowns
Airframe service: NONE
Powerplant service: NONE
Bottled oxygen: NONE
Bulk oxygen: NONE

Runway Information

Runway 2/20

Dimensions: 4000 x 200 ft. / 1219 x 61 m
Surface: turf, in good condition
Runway edge lights: low intensity
Runway edge markings: DTHR MKD BY LGTS & YELLOW TIRES.
RUNWAY 2  RUNWAY 20
Latitude: 39-53.031000N39-53.650000N
Longitude: 085-09.996167W085-09.703667W
Elevation: 990.0 ft.990.0 ft.
Traffic pattern: leftleft
Displaced threshold: 200 ft.1070 ft.
Markings: NSTDNSTD
Runway end identifier lights: no
Obstructions: 50 ft. trees, 350 ft. from runway, 160 ft. left of centerline, 7:1 slope to clear
APCH SLOPE 20:1 FM DTHR; 75 FT TREES 1645 FT FM DTHR.
80 ft. trees, 180 ft. from runway, 90 ft. right of centerline, 2:1 slope to clear
APCH SLOPE 21:1 FM DTHR; 30 FT TREES 640 FT FM DTHR.

Airport Ownership and Management from official FAA records

Ownership: Publicly-owned
Owner: TOWN OF HAGERSTOWN
49 E COLLEGE ST
HAGERSTOWN, IN 47346
Phone 765-489-6171
Manager: MIKE HABZANSKY
49 E COLLEGE ST
HAGERSTOWN, IN 47346
Phone 765-520-7032

Airport Operational Statistics

Aircraft based on the field: 9
Single engine airplanes: 8
Ultralights: 1
    
Aircraft operations: avg 39/week *
63% transient general aviation
37% local general aviation
* for 12-month period ending 31 December 2019

Additional Remarks

FOR CD CTC COLUMBUS APCH AT 614-338-8537

Instrument Procedures

There are no published instrument procedures at I61.

Some nearby airports with instrument procedures:

KUWL - New Castle Henry County Airport / Marlatt Field (7 nm W)
KCEV - Mettel Field Airport (12 nm S)
KRID - Richmond Municipal Airport (17 nm SE)
I22 - Randolph County Airport (20 nm NE)
KMIE - Delaware County Regional Airport (24 nm NW)
 
Loc | Ops | Rwys | IFR | FBO | Links
Com | Nav | Svcs | Stats | Notes
Area around I61 (Hagerstown Airport)
 
Road maps at: MapQuest Bing Google
 
Aerial photo
WARNING: Photo may not be current or correct
Aerial photo of I61 (Hagerstown Airport)
Photo by by Wally Dilling
Photo taken 29-May-2006
north view

Do you have a better or more recent aerial photo of Hagerstown Airport that you would like to share? If so, please send us your photo.

 
Sectional chart

 
Airport distance calculator
Flying to Hagerstown Airport? Find the distance to fly.

From to I61

Sunrise and sunset
Times for 03-Dec-2021
 Local
(UTC-5)
 Zulu
(UTC)
Morning civil twilight07:1612:16
Sunrise07:4612:46
Sunset17:1522:15
Evening civil twilight17:4522:45

Current date and time
Zulu (UTC)  03-Dec-2021 21:56:00
Local (UTC-5)  03-Dec-2021 16:56:00
 
METAR
KRID 
17nm SE 
032135Z AUTO 13007KT 10SM CLR 10/02 A2993 RMK AO2
KMIE 
23nm NW 
032053Z 13009KT 10SM CLR 13/00 A2993 RMK AO2 SLP132 T01330000 56024
KAID 
25nm NW 
031859Z 12008KT 10SM CLR 12/M01 A2997
KOXD 
29nm SE 
032015Z AUTO 12008KT 10SM CLR 14/M12 A2995 RMK AO2 T01361116
KHLB 
33nm S 
032135Z AUTO 13006KT 10SM CLR 13/04 A2992 RMK A01
TAF
KDAY 
44nm E 
031732Z 0318/0418 14008KT P6SM FEW120 FM040000 05003KT P6SM FEW250 FM041300 32010KT P6SM FEW250
NOTAMs
Click for the latest NOTAMs
NOTAMs are issued by the DoD/FAA and will open in a separate window not controlled by AirNav.

 

 
 

Would you like to see your business listed on this page?

 If your business provides an interesting product or service to pilots, flight crews, aircraft, or users of the Hagerstown Airport, you should consider listing it here.  To start the listing process, click on the button below
 
Add a business
 

Other Pages about Hagerstown Airport

Update a link
 
Copyright © AirNav, LLC. All rights reserved. Privacy Policy  Contact